Carbondale, IL

4:39 AM CDT on October 17, 2017 (GMT -0500)
Southern Illinois

Weather History for KMDH - August, 2013

Change the Weather History Date:

Sunday, August 25, 2013

  Actual Average Record
Temperature  
Mean Temperature 75 °F -  
Max Temperature 90 °F 87 °F 102 °F (1943)
Min Temperature 60 °F 62 °F 37 °F (1996)
Cooling Degree Days 10    
Growing Degree Days 25 (Base 50)    
Moisture  
Dew Point 65 °F    
Average Humidity 89    
Maximum Humidity 100    
Minimum Humidity 50    
Precipitation  
Precipitation 0.00 in - - ()
Sea Level Pressure  
Sea Level Pressure 30.23 in    
Wind  
Wind Speed 1 mph (ESE)    
Max Wind Speed 7 mph    
Max Gust Speed -    
Visibility 4 miles    
Events Fog    
Averages and records for this station are not official NWS values.
T = Trace of Precipitation, MM = Missing Value Source: NWS Daily Summary

Daily Weather History Graph

Daily Weather History Graph

Search for Another Location

Airport or City:

Trip Planner

Search our weather history database for the weather conditions in past years. The results will help you decide how hot, cold, wet, or windy it might be!

Date:

Astronomy

Aug. 25, 2013 Rise Set
Actual Time 6:21 AM CDT 7:36 PM CDT
Civil Twilight 5:54 AM CDT 8:03 PM CDT
Nautical Twilight 5:21 AM CDT 8:35 PM CDT
Astronomical Twilight 4:47 AM CDT 9:09 PM CDT
Moon 10:13 PM CDT (8/25) 11:16 AM CDT (8/25)
Length of Visible Light 14h 09m
Length of Day
13h 14m
Waning Gibbous, 75% of the Moon is Illuminated
Aug 25
Waning Gibbous
Aug 28
Last Quarter
Sep 5
New
Sep 12
First Quarter
Sep 19
Full

Hourly Weather History & Observations

Time (CDT) Temp. Heat Index Dew Point Humidity Pressure Visibility Wind Dir Wind Speed Gust Speed Precip Events Conditions
12:02 AM 64.4 °F - 64.4 °F 100% 30.21 in 0.8 mi Calm Calm - N/A   Clear
12:13 AM 64.4 °F - 62.6 °F 94% 30.21 in 0.2 mi Calm Calm - N/A Fog Fog
12:16 AM 64.4 °F - 62.6 °F 94% 30.21 in 0.5 mi Calm Calm - N/A Fog Fog
12:27 AM 64.4 °F - 64.4 °F 100% 30.21 in 0.5 mi Calm Calm - N/A Fog Fog
12:34 AM 64.4 °F - 64.4 °F 100% 30.21 in 0.2 mi Calm Calm - N/A Fog Fog
12:45 AM 62.6 °F - 62.6 °F 100% 30.21 in 0.2 mi Calm Calm - N/A Fog Fog
12:52 AM 64.0 °F - 63.0 °F 96% 30.20 in 0.2 mi Calm Calm - N/A Fog Fog
1:05 AM 62.6 °F - 62.6 °F 100% 30.21 in 0.2 mi Calm Calm - N/A Fog Fog
1:52 AM 63.0 °F - 62.1 °F 97% 30.20 in 0.2 mi Calm Calm - N/A Fog Fog
2:23 AM 62.6 °F - 60.8 °F 94% 30.22 in 0.8 mi Calm Calm - N/A   Clear
2:34 AM 62.6 °F - 62.6 °F 100% 30.22 in 0.2 mi Calm Calm - N/A Fog Fog
2:52 AM 62.1 °F - 62.1 °F 100% 30.21 in 0.2 mi Calm Calm - N/A Fog Fog
3:16 AM 62.6 °F - 62.6 °F 100% 30.22 in 0.5 mi Calm Calm - N/A Fog Fog
3:28 AM 60.8 °F - 60.8 °F 100% 30.22 in 0.2 mi Calm Calm - N/A Fog Fog
3:52 AM 62.1 °F - 61.0 °F 96% 30.22 in 0.2 mi Calm Calm - N/A Fog Fog
4:02 AM 60.8 °F - 60.8 °F 100% 30.23 in 0.2 mi Calm Calm - N/A Fog Fog
4:21 AM 60.8 °F - 60.8 °F 100% 30.24 in 0.5 mi Calm Calm - N/A Fog Fog
4:30 AM 60.8 °F - 60.8 °F 100% 30.24 in 1.0 mi Calm Calm - N/A   Clear
4:36 AM 60.8 °F - 60.8 °F 100% 30.24 in 0.2 mi Calm Calm - N/A Fog Fog
4:44 AM 60.8 °F - 60.8 °F 100% 30.24 in 0.2 mi Calm Calm - N/A Fog Fog
4:52 AM 62.1 °F - 61.0 °F 96% 30.23 in 0.2 mi Calm Calm - N/A Fog Fog
5:52 AM 60.1 °F - 59.0 °F 96% 30.25 in 0.2 mi Calm Calm - N/A Fog Fog
6:52 AM 60.1 °F - 60.1 °F 100% 30.26 in 0.2 mi Calm Calm - N/A Fog Fog
7:01 AM 60.8 °F - 60.8 °F 100% 30.27 in 0.2 mi Calm Calm - N/A Fog Fog
7:19 AM 62.6 °F - 62.6 °F 100% 30.27 in 1.0 mi Calm Calm - N/A   Clear
7:29 AM 64.4 °F - 64.4 °F 100% 30.27 in 3.0 mi Calm Calm - N/A   Clear
7:52 AM 66.0 °F - 64.9 °F 96% 30.27 in 6.0 mi Calm Calm - N/A   Clear
8:52 AM 73.9 °F - 66.9 °F 79% 30.27 in 10.0 mi Calm Calm - N/A   Clear
9:52 AM 78.1 °F - 68.0 °F 71% 30.27 in 10.0 mi Calm Calm - N/A   Clear
10:52 AM 81.0 °F 84.4 °F 70.0 °F 69% 30.27 in 10.0 mi East 3.5 mph - N/A   Clear
11:52 AM 84.0 °F 89.6 °F 72.0 °F 67% 30.25 in 10.0 mi Variable 3.5 mph - N/A   Clear
12:52 PM 84.9 °F 90.7 °F 72.0 °F 65% 30.23 in 10.0 mi Variable 3.5 mph - N/A   Mostly Cloudy
1:52 PM 87.1 °F 92.8 °F 71.1 °F 59% 30.22 in 10.0 mi East 3.5 mph - N/A   Scattered Clouds
2:52 PM 89.1 °F 94.1 °F 70.0 °F 53% 30.20 in 10.0 mi NNE 3.5 mph - N/A   Mostly Cloudy
3:52 PM 90.0 °F 94.5 °F 69.1 °F 50% 30.19 in 10.0 mi ENE 3.5 mph - N/A   Clear
4:52 PM 87.1 °F 92.8 °F 71.1 °F 59% 30.18 in 10.0 mi East 4.6 mph - N/A   Mostly Cloudy
5:52 PM 84.9 °F 90.1 °F 71.1 °F 63% 30.19 in 10.0 mi SSW 6.9 mph - N/A   Scattered Clouds
6:52 PM 82.0 °F 86.7 °F 72.0 °F 71% 30.19 in 9.0 mi South 4.6 mph - N/A   Clear
7:52 PM 78.1 °F - 72.0 °F 81% 30.19 in 8.0 mi SSE 3.5 mph - N/A   Clear
8:52 PM 73.9 °F - 71.1 °F 91% 30.20 in 8.0 mi Calm Calm - N/A   Clear
9:52 PM 73.9 °F - 71.1 °F 91% 30.22 in 7.0 mi Calm Calm - N/A   Clear
10:52 PM 72.0 °F - 70.0 °F 93% 30.22 in 6.0 mi Calm Calm - N/A   Clear
11:52 PM 73.0 °F - 70.0 °F 90% 30.22 in 6.0 mi South 3.5 mph - N/A   Clear